Time,TemperatureF,DewpointF,PressureIn,WindDirection,WindDirectionDegrees,WindSpeedMPH,WindSpeedGustMPH,Humidity,HourlyPrecipIn,Conditions,Clouds,dailyrainin,SoftwareType,DateUTC
2013-05-05 00:00:00,32.0,-99.9,-100.00,West,267,93.0,-999.0,-999,-99.99,,,0.00,,2013-05-05 06:00:00,
2013-05-05 01:00:00,32.0,-99.9,-100.00,North,-999,-999.0,-999.0,-999,-99.99,,,0.00,,2013-05-05 07:00:00,
2013-05-05 01:52:00,32.0,-99.9,-100.00,North,-999,-999.0,-999.0,-999,-99.99,,,0.00,,2013-05-05 07:52:00,
2013-05-05 02:00:00,31.0,-99.9,-100.00,SW,225,79.0,-999.0,-999,-99.99,,,0.00,,2013-05-05 08:00:00,
2013-05-05 03:00:00,29.0,-99.9,-100.00,WSW,240,81.0,-999.0,-999,-99.99,,,0.00,,2013-05-05 09:00:00,
2013-05-05 04:00:00,28.0,-99.9,-100.00,WSW,237,83.0,-999.0,-999,-99.99,,,0.00,,2013-05-05 10:00:00,
2013-05-05 05:00:00,27.0,-99.9,-100.00,WSW,242,83.0,-999.0,-999,-99.99,,,0.00,,2013-05-05 11:00:00,
2013-05-05 06:00:00,26.0,-99.9,-100.00,SW,224,77.0,-999.0,-999,-99.99,,,-99.99,,2013-05-05 12:00:00,
2013-05-05 07:00:00,31.0,-99.9,-100.00,SSW,204,75.0,-999.0,-999,-99.99,,,-99.99,,2013-05-05 13:00:00,
2013-05-05 08:00:00,35.0,-99.9,-100.00,SSE,155,60.0,-999.0,-999,-99.99,,,-99.99,,2013-05-05 14:00:00,
2013-05-05 09:00:00,37.0,-99.9,-100.00,SSE,148,54.0,-999.0,-999,-99.99,,,-99.99,,2013-05-05 15:00:00,
2013-05-05 10:00:00,40.0,-99.9,-100.00,SSE,152,54.0,-999.0,-999,-99.99,,,0.00,,2013-05-05 16:00:00,
2013-05-05 11:00:00,39.0,-99.9,-100.00,SSE,156,57.0,-999.0,-999,-99.99,,,0.00,,2013-05-05 17:00:00,
2013-05-05 12:00:00,39.0,-99.9,-100.00,SSE,164,60.0,-999.0,-999,-99.99,,,0.00,,2013-05-05 18:00:00,
2013-05-05 13:00:00,43.0,-99.9,-100.00,South,181,64.0,-999.0,-999,-99.99,,,0.00,,2013-05-05 19:00:00,
2013-05-05 14:00:00,45.0,-99.9,-100.00,SSE,162,58.0,-999.0,-999,-99.99,,,0.00,,2013-05-05 20:00:00,
2013-05-05 15:00:00,44.0,-99.9,-100.00,SSE,166,59.0,-999.0,-999,-99.99,,,0.00,,2013-05-05 21:00:00,
2013-05-05 16:00:00,43.0,-99.9,-100.00,South,181,63.0,-999.0,-999,-99.99,,,0.00,,2013-05-05 22:00:00,
2013-05-05 17:00:00,42.0,-99.9,-100.00,SSW,193,68.0,-999.0,-999,-99.99,,,0.00,,2013-05-05 23:00:00,
2013-05-05 18:00:00,41.0,-99.9,-100.00,SSW,195,69.0,-999.0,-999,-99.99,,,0.00,,2013-05-06 00:00:00,
2013-05-05 19:00:00,40.0,-99.9,-100.00,SSW,209,75.0,-999.0,-999,-99.99,,,0.00,,2013-05-06 01:00:00,
2013-05-05 20:00:00,39.0,-99.9,-100.00,SW,217,75.0,-999.0,-999,-99.99,,,0.00,,2013-05-06 02:00:00,
2013-05-05 21:00:00,38.0,-99.9,-100.00,SW,215,75.0,-999.0,-999,-99.99,,,0.00,,2013-05-06 03:00:00,
2013-05-05 22:00:00,36.0,-99.9,-100.00,SW,221,79.0,-999.0,-999,-99.99,,,0.00,,2013-05-06 04:00:00,
2013-05-05 23:00:00,35.0,-99.9,-100.00,SW,232,81.0,-999.0,-999,-99.99,,,0.00,,2013-05-06 05:00:00,